FW8071 Weather Reports


time (UTC)temp
C
wind
direction
speed
KPH
gust
KPH
rain 1hr
cm
rain 24hr
cm
rain mn
cm
humidity
%
barometer
mb
20260507010721 7 341 0.0 0.0 0.00 0.99 0.99 92 1009.3
20260507010218 7 3 0.0 0.0 0.00 0.99 0.99 92 1009.7
20260507005716 7 3 0.0 0.0 0.00 0.99 0.99 92 1009.7
20260507005211 7 3 0.0 0.0 0.00 0.99 0.99 92 1009.9
20260507004708 7 4 0.0 0.0 0.00 0.99 0.99 91 1009.7
20260507004206 7 4 0.0 0.0 0.00 0.99 0.99 91 1009.4
20260507003702 7 4 0.0 0.0 0.00 0.99 0.99 91 1009.4
20260507003157 7 4 0.0 0.0 0.00 0.99 0.99 91 1009.6
20260507002654 7 4 0.0 0.0 0.00 0.99 0.99 91 1009.2
20260507002149 7 1 0.0 0.0 0.00 0.99 0.99 91 1009.0
20260507001647 7 1 0.0 0.0 0.00 0.99 0.99 90 1009.2
20260507001144 7 352 0.0 0.0 0.00 0.99 0.99 90 1009.3
20260507000640 7 354 0.0 0.0 0.00 0.99 0.99 90 1009.5
20260507000135 7 345 0.0 1.6 0.00 0.99 0.99 90 1009.2
20260506235633 7 359 1.6 3.2 0.00 0.99 0.99 90 1009.1
20260506235133 7 357 1.6 1.6 0.00 0.99 0.99 90 1009.0
20260506234631 7 358 1.6 1.6 0.00 0.99 0.99 90 1008.9
20260506234128 7 353 0.0 1.6 0.00 0.99 0.99 89 1009.1
20260506233625 7 347 1.6 1.6 0.00 0.99 0.99 89 1008.8
20260506233122 7 349 0.0 0.0 0.00 0.99 0.99 89 1008.7
20260506232618 7 7 1.6 1.6 0.00 0.99 0.99 89 1008.9
20260506232114 7 18 0.0 0.0 0.00 0.99 0.99 89 1008.5
20260506231611 7 12 0.0 0.0 0.00 0.99 0.99 89 1008.8
20260506231109 8 5 0.0 0.0 0.00 0.99 0.99 89 1008.5
20260506230606 8 344 0.0 0.0 0.00 0.99 0.99 89 1008.5
20260506230103 8 0 4.8 4.8 0.00 0.99 0.99 89 1008.4
20260506225559 8 359 1.6 3.2 0.00 0.99 0.99 89 1008.7
20260506225055 8 356 1.6 1.6 0.00 0.99 0.99 89 1008.8
20260506224553 8 1 0.0 0.0 0.00 0.99 0.99 89 1008.5
20260506224049 8 10 1.6 3.2 0.00 0.99 0.99 89 1008.5
20260506223545 8 6 0.0 1.6 0.00 0.99 0.99 89 1008.8
20260506223042 7 346 0.0 1.6 0.00 0.99 0.99 90 1008.5
20260506222539 8 11 0.0 1.6 0.00 0.99 0.99 90 1008.7
20260506222035 8 353 0.0 0.0 0.00 0.99 0.99 90 1008.7
20260506221532 8 352 1.6 1.6 0.00 0.99 0.99 90 1008.8
20260506221030 8 350 1.6 1.6 0.00 0.99 0.99 89 1008.6
20260506220526 8 356 0.0 1.6 0.00 0.99 0.99 89 1008.7
20260506220022 8 350 0.0 0.0 0.00 0.99 0.99 89 1008.8
20260506215519 7 19 3.2 3.2 0.00 0.99 0.99 89 1008.5
20260506215015 7 12 3.2 3.2 0.00 0.99 0.99 89 1008.8
20260506214512 7 342 4.8 8.0 0.00 0.99 0.99 90 1008.6
20260506214009 7 5 4.8 8.0 0.00 0.99 0.99 90 1008.6
20260506213507 7 359 1.6 1.6 0.00 0.99 0.99 91 1008.5
20260506213004 7 8 1.6 3.2 0.00 0.99 0.99 91 1008.7
20260506212500 7 342 0.0 0.0 0.00 0.99 0.99 91 1008.9
20260506211955 8 10 4.8 8.0 0.00 0.99 0.99 91 1008.6
20260506211451 7 7 1.6 3.2 0.00 0.99 0.99 91 1008.4
20260506210948 8 344 0.0 1.6 0.00 0.99 0.99 91 1008.6
20260506210444 8 344 3.2 3.2 0.00 0.99 0.99 92 1008.5
20260506205942 8 17 1.6 1.6 0.00 0.99 0.99 92 1008.4
20260506205438 7 7 4.8 4.8 0.00 0.99 0.99 92 1008.5
20260506204934 7 333 3.2 3.2 0.00 0.99 0.99 92 1008.6
20260506204432 7 354 3.2 3.2 0.00 0.99 0.99 92 1008.5
20260506203929 7 359 1.6 1.6 0.00 0.99 0.99 93 1008.6
20260506203426 7 340 3.2 4.8 0.00 0.99 0.99 93 1008.9
20260506202923 7 349 3.2 3.2 0.00 0.99 0.99 93 1008.9
20260506202421 7 344 4.8 4.8 0.00 0.99 0.99 93 1008.6
20260506201917 7 358 3.2 3.2 0.00 0.99 0.99 93 1008.7
20260506201414 7 348 1.6 3.2 0.00 0.99 0.99 93 1008.5
20260506200911 7 347 0.0 1.6 0.00 0.99 0.99 94 1008.6
20260506200407 7 358 1.6 3.2 0.00 0.99 0.99 94 1008.6
20260506195904 7 352 4.8 8.0 0.13 0.99 0.99 94 1008.7
20260506195401 7 359 1.6 1.6 0.13 0.99 0.99 94 1008.6
20260506194857 7 5 6.4 9.7 0.00 0.97 0.97 94 1008.9
20260506194354 7 334 1.6 3.2 0.00 0.97 0.97 94 1008.9
20260506193852 7 2 3.2 3.2 0.00 0.97 0.97 95 1008.9
20260506193349 7 342 0.0 1.6 0.00 0.97 0.97 95 1008.8
20260506192845 7 347 6.4 8.0 0.00 0.97 0.97 95 1008.8
20260506192342 7 2 6.4 11.3 0.00 0.97 0.97 95 1008.6
20260506191839 7 344 6.4 8.0 0.00 0.97 0.97 95 1008.5
20260506191335 7 355 3.2 8.0 0.00 0.97 0.97 95 1008.6
20260506190832 7 4 8.0 9.7 0.00 0.97 0.97 95 1008.7
20260506190328 7 356 0.0 1.6 0.00 0.97 0.97 96 1008.6
20260506185825 7 33 4.8 8.0 0.00 0.97 0.97 96 1008.6
20260506185322 6 359 6.4 8.0 0.00 0.97 0.97 96 1008.5
20260506184819 6 356 1.6 1.6 0.00 0.97 0.97 96 1008.6
20260506184317 7 49 12.9 16.1 0.00 0.97 0.97 96 1009.0
20260506183814 6 8 3.2 4.8 0.00 0.97 0.97 96 1008.9
20260506183309 7 358 6.4 8.0 0.00 0.97 0.97 96 1008.9
20260506182806 7 10 4.8 8.0 0.00 0.97 0.97 96 1008.9
20260506182306 7 351 0.0 1.6 0.00 0.97 0.97 96 1008.8
20260506181801 7 27 1.6 3.2 0.00 0.97 0.97 96 1009.0
20260506181259 7 4 8.0 9.7 0.00 0.97 0.97 96 1009.0
20260506180756 7 26 3.2 4.8 0.00 0.97 0.97 96 1009.0
20260506180251 7 8 0.0 1.6 0.00 0.97 0.97 96 1008.9
20260506175748 7 34 0.0 0.0 0.00 0.97 0.97 96 1009.3
20260506175245 7 22 4.8 4.8 0.00 0.97 0.97 96 1009.2
20260506174742 6 28 3.2 3.2 0.00 0.97 0.97 96 1009.1
20260506174239 6 29 3.2 4.8 0.00 0.97 0.97 96 1009.2
20260506173737 6 2 4.8 4.8 0.18 0.97 0.97 96 1009.2
20260506173233 7 7 1.6 1.6 0.18 0.97 0.97 96 1009.5
20260506172731 6 23 3.2 4.8 0.00 0.94 0.94 96 1009.4
20260506172227 6 3 3.2 4.8 0.18 0.94 0.94 96 1009.5
20260506171725 6 8 0.0 1.6 0.18 0.94 0.94 96 1009.5
20260506171222 6 38 3.2 4.8 0.13 0.91 0.91 96 1009.5
20260506170719 6 32 3.2 3.2 0.13 0.91 0.91 96 1009.4
20260506170216 6 0 4.8 4.8 0.18 0.89 0.89 96 1009.7
20260506165714 6 27 4.8 4.8 0.18 0.89 0.89 96 1009.6
20260506165211 6 343 4.8 11.3 0.13 0.86 0.86 96 1009.6
20260506164708 6 19 4.8 4.8 0.13 0.86 0.86 96 1009.4
20260506164205 6 34 6.4 8.0 0.18 0.84 0.84 96 1009.8
20260506163701 6 32 4.8 9.7 0.18 0.84 0.84 96 1009.6
20260506163157 6 1 1.6 1.6 0.13 0.81 0.81 96 1009.3
20260506162653 6 4 3.2 3.2 0.30 0.81 0.81 96 1010.0
20260506162150 6 345 4.8 8.0 0.30 0.79 0.79 96 1009.8
20260506161648 6 357 0.0 0.0 0.13 0.76 0.76 96 1009.9
20260506161144 6 2 3.2 4.8 0.18 0.74 0.74 96 1009.9
20260506160642 6 355 1.6 1.6 0.30 0.74 0.74 96 1009.7
20260506160139 6 351 4.8 8.0 0.13 0.71 0.71 96 1010.0
20260506155637 6 2 3.2 3.2 0.18 0.69 0.69 96 1010.0
20260506155134 6 5 4.8 4.8 0.18 0.69 0.69 96 1010.0
20260506153236 6 31 3.2 3.2 0.36 0.64 0.64 96 1010.1
20260506152733 6 355 0.0 0.0 0.18 0.61 0.61 96 1010.3
20260506152230 6 8 8.0 9.7 0.13 0.58 0.58 95 1010.3
20260506151729 6 21 3.2 3.2 0.30 0.58 0.58 95 1010.3
20260506151225 6 1 0.0 1.6 0.30 0.56 0.56 95 1010.5
20260506150722 6 24 1.6 3.2 0.13 0.53 0.53 95 1010.5
20260506150219 6 21 0.0 0.0 0.18 0.51 0.51 95 1010.2
20260506145716 6 351 4.8 8.0 0.18 0.51 0.51 95 1010.4
20260506145212 6 0 1.6 3.2 0.13 0.48 0.48 95 1010.4
20260506144710 6 3 3.2 4.8 0.13 0.48 0.48 95 1010.1
20260506144207 6 12 3.2 3.2 0.18 0.46 0.46 95 1010.0
20260506143704 6 20 4.8 9.7 0.00 0.43 0.43 95 1009.9
20260506143202 6 0 1.6 3.2 0.13 0.43 0.43 95 1009.9
20260506142701 6 354 1.6 1.6 0.13 0.43 0.43 95 1009.9
20260506142158 6 47 4.8 8.0 0.18 0.41 0.41 95 1010.1
20260506141655 6 12 1.6 1.6 0.18 0.41 0.41 95 1010.3
20260506141154 6 352 1.6 1.6 0.00 0.38 0.38 94 1010.4
20260506140651 6 353 0.0 0.0 0.13 0.38 0.38 94 1010.0
20260506140148 6 352 3.2 4.8 0.13 0.38 0.38 94 1010.2
20260506135645 6 0 1.6 3.2 0.18 0.36 0.36 94 1010.4
20260506135141 6 354 0.0 0.0 0.18 0.36 0.36 94 1010.3
20260506134638 6 356 0.0 1.6 0.13 0.33 0.33 94 1010.1
20260506134133 6 7 1.6 1.6 0.13 0.33 0.33 94 1010.1
20260506133631 6 25 3.2 4.8 0.00 0.30 0.30 93 1010.1
20260506133128 6 358 1.6 3.2 0.18 0.30 0.30 93 1009.8
20260506132625 6 6 3.2 4.8 0.18 0.30 0.30 93 1009.8
20260506132122 6 352 1.6 3.2 0.00 0.28 0.28 93 1010.1
20260506131620 6 5 0.0 1.6 0.00 0.28 0.28 93 1009.9
20260506131116 6 356 0.0 0.0 0.00 0.28 0.28 93 1010.2
20260506130613 6 346 6.4 8.0 0.00 0.28 0.28 93 1010.2
20260506130110 7 22 1.6 3.2 0.18 0.28 0.28 93 1010.1
20260506125608 7 358 1.6 1.6 0.18 0.28 0.28 93 1009.9
20260506125106 6 348 1.6 3.2 0.00 0.25 0.25 93 1010.1
20260506124603 7 328 1.6 3.2 0.13 0.25 0.25 93 1010.1
20260506124101 7 354 3.2 3.2 0.13 0.25 0.25 92 1010.0
20260506123558 6 345 1.6 1.6 0.18 0.23 0.23 92 1010.3
20260506123057 7 347 0.0 1.6 0.18 0.23 0.23 92 1010.3
20260506122553 7 355 0.0 0.0 0.00 0.20 0.20 92 1010.7
20260506122051 7 352 0.0 0.0 0.13 0.20 0.20 92 1010.4
20260506121548 7 354 0.0 0.0 0.13 0.20 0.20 91 1010.5
20260506121044 7 348 0.0 0.0 0.00 0.18 0.18 91 1010.4
20260506120543 7 3 3.2 3.2 0.18 0.18 0.18 91 1010.3
20260506120040 7 349 0.0 0.0 0.18 0.18 0.18 91 1010.5
20260506115538 7 342 0.0 0.0 0.18 0.18 0.18 90 1010.7
20260506115036 7 345 0.0 0.0 0.13 0.15 0.15 90 1010.7
20260506114533 7 332 1.6 1.6 0.13 0.15 0.15 90 1011.0
20260506114031 7 338 1.6 1.6 0.18 0.13 0.13 89 1010.8
20260506113529 7 341 0.0 0.0 0.18 0.13 0.13 88 1010.7
20260506113026 7 339 1.6 1.6 0.13 0.10 0.10 88 1010.7
20260506112522 7 335 1.6 1.6 0.13 0.10 0.10 87 1010.7
20260506112020 7 338 1.6 1.6 0.00 0.08 0.08 87 1010.3
20260506111518 7 346 0.0 0.0 0.18 0.08 0.08 86 1010.3
20260506111015 7 347 0.0 1.6 0.18 0.08 0.08 86 1010.2
20260506110512 7 340 1.6 1.6 0.00 0.05 0.05 86 1010.4
20260506110009 7 342 0.0 1.6 0.00 0.05 0.05 86 1010.4
20260506105505 7 348 1.6 1.6 0.00 0.05 0.05 86 1010.2
20260506105003 8 350 1.6 1.6 0.00 0.05 0.05 86 1010.1
20260506104501 8 343 0.0 0.0 0.13 0.05 0.05 86 1010.3
20260506103958 8 345 1.6 1.6 0.13 0.05 0.05 85 1010.1
20260506103455 8 346 0.0 0.0 0.00 0.03 0.03 85 1010.2
20260506102952 8 345 0.0 0.0 0.00 0.03 0.03 84 1010.1
20260506102450 8 345 0.0 0.0 0.00 0.03 0.03 84 1009.8
20260506101947 8 351 0.0 0.0 0.00 0.03 0.03 83 1009.9
20260506101444 8 354 0.0 0.0 0.00 0.03 0.03 82 1009.6
20260506100941 8 359 1.6 1.6 0.00 0.03 0.03 82 1009.6
20260506100439 8 347 0.0 0.0 0.00 0.03 0.03 82 1009.8
20260506095937 8 354 0.0 0.0 0.00 0.03 0.03 82 1009.7
20260506095435 8 355 1.6 1.6 0.00 0.03 0.03 83 1009.9
20260506094931 8 341 0.0 0.0 0.00 0.03 0.03 84 1009.9
20260506094430 8 357 1.6 1.6 0.00 0.03 0.03 85 1009.9
20260506093927 8 352 0.0 0.0 0.00 0.03 0.03 85 1009.7
20260506093425 8 352 0.0 0.0 0.00 0.03 0.03 84 1009.8
20260506092922 8 344 1.6 1.6 0.00 0.03 0.03 84 1009.8
20260506092420 8 358 3.2 4.8 0.00 0.03 0.03 84 1009.8
20260506091916 9 346 0.0 0.0 0.18 0.03 0.03 83 1010.3
20260506091415 9 348 1.6 1.6 0.18 0.03 0.03 81 1010.1
20260506090911 9 334 1.6 1.6 0.00 0.00 0.00 80 1010.4
20260506090409 9 337 1.6 1.6 0.00 0.00 0.00 78 1009.9
20260506085906 10 332 1.6 1.6 0.00 0.00 0.00 77 1010.3
20260506085402 10 331 0.0 1.6 0.00 0.00 0.00 76 1010.5
20260506084858 10 328 1.6 1.6 0.00 0.00 0.00 74 1010.6
20260506084355 10 335 1.6 3.2 0.00 0.00 0.00 72 1010.1
20260506083852 10 349 1.6 3.2 0.00 0.00 0.00 71 1010.2
20260506083350 10 315 3.2 3.2 0.00 0.00 0.00 71 1010.4
20260506082847 10 328 1.6 3.2 0.00 0.00 0.00 72 1010.0
20260506082343 10 321 1.6 3.2 0.00 0.00 0.00 72 1009.7
20260506081839 10 311 3.2 3.2 0.00 0.00 0.00 73 1010.0
20260506081338 10 322 3.2 3.2 0.00 0.00 0.00 74 1010.0
20260506080835 10 327 1.6 1.6 0.00 0.00 0.00 74 1009.9
20260506080331 10 330 1.6 1.6 0.00 0.00 0.00 74 1010.0
20260506073315 10 302 3.2 3.2 0.00 0.00 0.00 74 1009.4
20260506072812 10 330 3.2 3.2 0.00 0.00 0.00 74 1009.8
20260506072310 11 311 3.2 3.2 0.00 0.00 0.00 73 1009.8
20260506071807 11 331 1.6 1.6 0.00 0.00 0.00 73 1009.9
20260506071305 11 335 0.0 1.6 0.00 0.00 0.00 72 1010.1
20260506070802 11 334 1.6 3.2 0.00 0.00 0.00 72 1009.9
20260506070259 11 316 3.2 3.2 0.00 0.00 0.00 72 1009.8
20260506062236 11 344 0.0 0.0 0.00 0.00 0.00 76 1009.9
20260506061732 11 338 0.0 0.0 0.00 0.00 0.00 76 1009.9
20260506061230 11 341 1.6 1.6 0.00 0.00 0.00 77 1009.8
20260506060728 11 345 0.0 0.0 0.00 0.00 0.00 77 1009.6
20260506060225 11 0 4.8 4.8 0.00 0.00 0.00 77 1009.7
20260506051157 12 326 4.8 8.0 0.00 0.00 0.00 79 1009.8
20260506050655 12 298 4.8 8.0 0.00 0.00 0.00 79 1009.8
20260506050152 12 326 4.8 8.0 0.00 0.00 0.00 78 1010.1
20260506044643 12 311 8.0 12.9 0.00 0.00 0.00 77 1009.9
20260506044139 12 274 4.8 4.8 0.00 0.00 0.00 77 1009.6
20260506043637 12 269 4.8 4.8 0.00 0.00 0.00 77 1009.3
20260506043135 12 269 9.7 11.3 0.00 0.00 0.00 76 1009.0
20260506042633 12 298 6.4 11.3 0.00 0.00 0.00 76 1009.3
20260506042131 12 268 1.6 3.2 0.00 0.00 0.00 76 1009.5
20260506041630 12 267 11.3 17.7 0.00 0.00 0.00 76 1009.0
20260506041126 13 248 4.8 9.7 0.00 0.00 0.00 75 1008.9
20260506040624 13 261 4.8 11.3 0.00 0.00 0.00 75 1008.7
20260506040120 13 246 9.7 12.9 0.00 0.00 0.00 74 1008.5
20260506035617 13 297 4.8 8.0 0.00 0.05 0.05 73 1008.3
20260506035114 13 279 4.8 8.0 0.00 0.05 0.05 73 1008.5
20260506034611 13 275 6.4 9.7 0.00 0.05 0.05 73 1008.2
20260506034108 13 252 12.9 16.1 0.00 0.05 0.05 73 1007.8
20260506033605 13 317 8.0 9.7 0.00 0.05 0.05 73 1007.6
20260506033102 13 284 6.4 8.0 0.00 0.05 0.05 73 1007.2
20260506032559 13 287 11.3 12.9 0.00 0.05 0.05 72 1007.6
20260506032056 13 316 3.2 4.8 0.00 0.05 0.05 72 1007.6
20260506031554 14 293 9.7 12.9 0.00 0.05 0.05 71 1008.0
20260506031050 14 328 9.7 11.3 0.00 0.05 0.05 71 1007.9
20260506030549 14 291 8.0 9.7 0.00 0.05 0.05 70 1008.2
20260506030045 14 288 8.0 11.3 0.00 0.05 0.05 69 1008.2
20260506025542 15 286 8.0 11.3 0.00 0.05 0.05 68 1008.2
20260506025038 15 290 6.4 8.0 0.00 0.05 0.05 67 1008.3
20260506024535 15 290 8.0 11.3 0.00 0.05 0.05 66 1008.4
20260506024031 15 268 4.8 4.8 0.00 0.05 0.05 66 1008.4
20260506023528 15 300 1.6 3.2 0.00 0.05 0.05 65 1008.4
20260506023026 15 243 4.8 8.0 0.00 0.05 0.05 64 1008.2
20260506022523 15 261 14.5 16.1 0.00 0.05 0.05 64 1008.3
20260506022020 15 299 3.2 3.2 0.00 0.05 0.05 63 1008.2
20260506021518 16 277 8.0 12.9 0.00 0.05 0.05 62 1008.1
20260506021015 16 273 11.3 14.5 0.00 0.05 0.05 61 1007.9
20260506020512 16 326 3.2 3.2 0.00 0.05 0.05 60 1008.2
20260506020010 16 322 4.8 8.0 0.00 0.05 0.05 59 1007.8
20260506015507 16 273 4.8 8.0 0.00 0.05 0.05 58 1007.7
20260506015004 16 278 4.8 4.8 0.00 0.05 0.05 58 1008.0
20260506014501 16 312 6.4 9.7 0.00 0.05 0.05 58 1008.0
20260506013957 17 330 6.4 11.3 0.00 0.05 0.05 57 1007.8
20260506013455 17 255 9.7 12.9 0.00 0.05 0.05 57 1007.7
20260506012951 17 234 9.7 12.9 0.00 0.05 0.05 57 1007.7
20260506012448 17 336 4.8 4.8 0.00 0.05 0.05 57 1007.7
20260506011945 17 290 8.0 14.5 0.00 0.05 0.05 57 1007.5
20260506011442 17 287 4.8 8.0 0.00 0.05 0.05 58 1007.3